Regional Weather Roundup
Issued by NWS Charleston, SC

Home | Current Version | Previous Version | Text Only | Print | Product List | Glossary On
Versions: 1 2 3 4 5 6 7 8 9 10 11 12 13 14 15 16 17 18 19 20 21 22 23 24 25 26 27 28 29 30 31 32 33 34 35 36 37 38 39 40 41 42 43 44 45 46 47 48 49 50
448
ASUS42 KCHS 172127
RWRCHS

REGIONAL WEATHER ROUNDUP
NATIONAL WEATHER SERVICE CHARLESTON SC
400 PM EST TUE JAN 17 2017

NOTE: "FAIR" INDICATES FEW OR NO CLOUDS BELOW 12,000 FEET WITH NO
SIGNIFICANT WEATHER AND/OR OBSTRUCTIONS TO VISIBILITY.

NOT ALL STATIONS ARE QUALITY CONTROLLED. USE DATA WITH CAUTION...
ESPECIALLY DEWPOINT OBSERVATIONS.

SCZ027-030-031-034>040-042>050-172200-
...SOUTHEAST SOUTH CAROLINA...

CITY           SKY/WX    TMP DP  RH WIND       PRES   REMARKS
N CHARLESTON   MOSUNNY   75  57  53 S10       30.17S
WATERFRONT PRK   N/A     71  60  68 SW7       30.16S
MOUNT PLEASANT FAIR      73  59  60 S6        30.17F
JOHNS ISLAND   FAIR      72  63  73 S8        30.18S
PINOPOLIS        N/A     61  61 100 VRB3      30.08F
MONCKS CORNER  FAIR      73  54  49 SW7       30.16F
SUMMERVILLE    FAIR      75  59  57 SW3       30.18S
BEAUFORT MCAS  MOSUNNY   74  59  59 CALM      30.18S
BEAUFORT ARPT  FAIR      70  61  73 CALM      30.18S
HILTON HEAD IS PTSUNNY   73  61  64 SE3       30.19F
WALTERBORO     CLEAR     77  55  47 W6        30.17F
ALLENDALE      FAIR      75  55  50 VRB3      30.16S

...SOUTHERN MIDLANDS AND PEE DEE...

CITY           SKY/WX    TMP DP  RH WIND       PRES   REMARKS
GEORGETOWN     FAIR      64  57  77 SE8       30.18S
KINGSTREE      FAIR      70  55  60 S5        30.16F
ORANGEBURG     SUNNY     75  55  49 SW13      30.15F
BARNWELL       FAIR      77  57  50 SW6       30.16S
AIKEN          FAIR      72  54  53 SW8       30.18S
MANNING        FAIR      68  57  68 CALM      30.16S
COLUMBIA       PTSUNNY   76  55  48 SW7       30.13S
SUMTER         PTSUNNY   72  58  60 S10       30.13S
FLORENCE       MOSUNNY   68  58  70 SW8       30.16S
MYRTLE BEACH   SUNNY     66  55  68 NE12      30.19S
N MYRTLE BEACH MOSUNNY   64  57  78 S7        30.16F

$$

GAZ063-065-086>088-099>101-113>116-118-119-134>141-150-172200-
...SOUTHEAST GEORGIA...

CITY           SKY/WX    TMP DP  RH WIND       PRES   REMARKS
SAVANNAH ARPT  PTSUNNY   75  56  51 W5        30.18S
HUNTER AAF     MOSUNNY   76  55  48 SW6       30.16S
FORT STEWART   MOSUNNY   76  57  52 SW6       30.16S
STATESBORO     MOSUNNY   76  60  57 SW5       30.18R
SYLVANIA       PTCLDY   N/A N/A N/A W6        30.18S
CLAXTON        FAIR      77  65  67 S3        30.18S

...CSRA...CENTRAL AND FAR SOUTHEAST GEORGIA...

CITY           SKY/WX    TMP DP  RH WIND       PRES   REMARKS
THOMSON        MOSUNNY   76  59  55 W5        30.19F
AUGUSTA-BUSH   SUNNY     79  53  40 W13G20    30.14S
AUGUSTA-DANIEL MOSUNNY   76  52  43 SW12      30.16R
SWAINSBORO     FAIR      77  55  47 SW5       30.18R
VIDALIA        MOSUNNY   77  63  61 SW5       30.18R
EASTMAN        FAIR      79  41  25 SW7       30.19S
HAZLEHURST     FAIR      78  59  52 SW10      30.17R
ALMA           SUNNY     77  57  50 SW7       30.17F
WAYCROSS       MOSUNNY   80  61  51 SW7       30.18S
JESUP          FAIR      79  54  41 W3        30.18S
BAXLEY         FAIR      77  61  57 W7        30.18R
BRUNSWICK      MOSUNNY   77  63  61 S7        30.19F
SAINT SIMONS   MOSUNNY   68  61  78 SE6       30.19S

$$

SCZ027-028-034-036>038-045-046-048>050-GAZ119-141-172200-
...LAKE AND SUPPLEMENTAL COASTAL OBSERVATIONS...

STATION/POSITION TIME  TEMP    WIND        PRES    WAVE   SWELL
                       AIR SEA DIR/SP/G            HT/PER HT/PER/DIR
                 (UTC) (F)     (DEG/KT/KT) (MB)    (FT/S) (FT/S/D)
WINYAH BAY       2045   62     100/  3     1022.0S
LAKE MURRAY      2050   70     240/  7/ 10 1020.0F
ACE BASIN NERRS  2045   69        CALM     1022.0S
FORT PULASKI     2100   69 56  180/  4/  6 1022.4
SAPELO ISLAND    2100   73     150/  5     1022.0

$$

ANZ835-935-AMZ111-154-330-350-352-354-370-450-454-472-172200-
...C-MAN AND BUOY OBSERVATIONS...

STATION/POSITION TIME  TEMP    WIND        PRES    WAVE   SWELL
                       AIR SEA DIR/SP/G            HT/PER HT/PER/DIR
                 (UTC) (F)     (DEG/KT/KT) (MB)    (FT/S) (FT/S/D)
BUOY 41004       2050   71 71  240/  8/ 10 1022.1R   2/ 8   2/130/ 8
BUOY 41008       2050   61 61  120/  4/  4 1022.5S   2/10   2/ 90/10
FOLLY BEACH CMAN 2100   60     200/  5/  6 1022.8S
CAPERS NEARSHORE 2108   59 55  220/  8/ 10 1021.9S
FRIPP NEARSHORE  2108   60 57  180/  6/  8 1021.8F


STATION/POSITION TIME  TEMP    WIND        PRES    WAVE   SWELL
                       AIR SEA DIR/SP/G            HT/PER HT/PER/DIR
                 (UTC) (F)     (DEG/KT/KT) (MB)    (FT/S) (FT/S/D)
5E ST. MARYS GA  2100      62                N/A     2/11
FRYING PAN BUOY  2110   70 72  220/  8/ 10 1021.9
BUOY 41025       2050   67 73  210/  8/  8 1021.3F   2/ 8   2/ 90/ 8
CAPE LOOKOUT NC  2100   65     210/  8/ 10 1020.8F
BUOY 41002       2050   72 72  220/ 10/ 12 1023.8R   3/ 9   2/ 90/ 9
BUOY 41010       NOT AVBL
ST AUGUSTINE FL  2100   67 66  130/  6/  7 1023.5F


$$




USA.gov is the U.S. government's official web portal to all federal, state and local government web resources and services.